Regional Weather Roundup
Issued by NWS Newport/Morehead, NC

Current Version | Previous Version | Graphics & Text | Print | Product List | Glossary Off
Versions: 1 2 3 4 5 6 7 8 9 10 11 12 13 14 15 16 17 18 19 20 21 22 23 24 25 26 27 28 29 30 31 32 33 34 35 36 37 38 39 40 41 42 43 44 45 46 47 48 49 50

000
ASUS42 KMHX 270925
RWRMHX
WEATHER ROUNDUP FOR EASTERN NORTH CAROLINA
NATIONAL WEATHER SERVICE NEWPORT/MOREHEAD CITY NC
500 AM EDT SUN MAY 27 2018

NOTE: "FAIR" INDICATES FEW OR NO CLOUDS BELOW 12,000 FEET
WITH NO SIGNIFICANT WEATHER AND/OR OBSTRUCTIONS TO VISIBILITY

NCZ015>017-031-032-045>047-102-103-271000-
NORTH COAST

CITY           SKY/WX    TMP DP  RH WIND       PRES   REMARKS
EDENTON        FAIR      74  72  91 SW8       29.99S
ELIZABETH CITY FAIR      74  72  93 SW12      29.97R
KITTY HAWK     FAIR      73  70  88 SW7       29.97S
MANTEO         FAIR      73  71  92 SW10      29.99S

$$

NCZ045>047-081-094-103-104-271000-
CENTRAL COAST

CITY           SKY/WX    TMP DP  RH WIND       PRES   REMARKS
FRISCO         FAIR      73  72  96 SW7       30.00F

$$

NCZ095-097-098-100-101-271000-
SOUTHERN COAST

CITY           SKY/WX    TMP DP  RH WIND       PRES   REMARKS
BEAUFORT       FAIR      74  73  97 SW6       30.00S
CEDAR ISLAND   NOT AVBL
JACKSONVILLE   FAIR      71  71 100 S3        29.99S FOG
PINEY ISLAND   NOT AVBL
WILMINGTON     FAIR      69  68  96 CALM      29.99S


$$

NCZ011>013-027>030-043-044-078>080-089-090>093-098-271000-
COASTAL PLAIN

CITY           SKY/WX    TMP DP  RH WIND       PRES   REMARKS
AHOSKIE        FAIR      71  69  95 S6        29.97R
CLINTON        CLOUDY    70  70 100 CALM      29.99S
ELIZABETHTOWN  FAIR      70  70  98 S3        29.99S
GOLDSBORO      FAIR      72  70  94 S5        29.97S
GREENVILLE     FAIR      72  72 100 SW7       30.00R
HAVELOCK       NOT AVBL
KENANSVILLE    CLOUDY    72  70  94 CALM      29.99S FOG
KINSTON        MOCLDY    72  70  95 S6        29.99S
NEW BERN       FAIR      69  69 100 S3        30.01S
RICHLANDS      FOG       66  66 100 CALM      30.00S VSB 1/2
ROCKY MOUNT    FAIR      70  69  97 S6        29.97S
WASHINGTON     CLOUDY    72  71  96 CALM      29.99S
WHITEVILLE     FOG       69  68  98 CALM      29.98S VSB 3/4

$$

AMZ130-135-150-152-154-156-158-170-250-252-270-ANZ085-086-088-633-658-670-271000-
MARINE OBSERVATIONS

STATION/POSITION TIME  TEMP    WIND        PRES    WAVE   SWELL
                       AIR SEA DIR/SP/G            HT/PER HT/PER
                 (UTC) (F)     (DEG/KT/KT) (MB)    (FT/S) (FT/S)
CHESAPEAKE LIGHT NOT AVBL
64 E VA BEACH    0850   74 72  220/ 14/ 17 1014.9    3/ 5   2/ 8
DUCK             0900   75 54  230/ 16/ 20 1014.8
2 E DUCK         0900      58                N/A     2/ 9
OREGON INLET     0900          220/ 16/ 18 1015.2
13E OREGON INLT  0848      70                N/A     2/ 5   2/ 9
HATTERAS CG      0900   75 77  220/  7/ 11 1015.6
DIAMOND BUOY     0910   78 78  230/ 12/ 14 1016.4
CAPE LOOKOUT     0900          230/  4/  5 1016.2
BEAUFORT LAB     0900   75 79  210/  5/  7 1016.2
30 SE NEW RVR IN 0908   77 76  210/  6/  8 1015.9
30 SE NEW RVR IN 0900      76                N/A     3/ 9
27 SE WRIGHTSVLE 0908   76 77  200/  8/ 12 1015.8
5 SE WRIGHTSVLE  0908   73 74  170/  4/  6 1015.0
225 S CAPE HAT   0900      78  160/ 14/ 17 1016.4
41 SE CHARLESTON 0900      76  130/  6/  8 1014.6

$$



USA.gov is the U.S. government's official web portal to all federal, state and local government web resources and services.